Regional Weather Roundup
Issued by NWS

Home | Current Version | Previous Version | Graphics & Text | Print | Product List | Glossary On
Versions: 1 2 3 4 5 6 7 8 9 10 11 12 13 14 15 16 17 18 19 20 21 22 23 24 25 26 27 28 29 30 31 32 33 34 35 36 37 38 39 40 41 42 43 44 45 46 47 48 49 50
401
ASUS43 KFSD 022110
RWRSD

WEATHER ROUNDUP FOR SOUTH DAKOTA
NATIONAL WEATHER SERVICE SIOUX FALLS SD
300 PM CST FRI DEC 02 2016

NOTE: "FAIR" INDICATES FEW OR NO CLOUDS BELOW 12,000 FEET WITH NO
SIGNIFICANT WEATHER AND/OR OBSTRUCTIONS TO VISIBILITY.


SDZ001>005-009-010-012>017-022200-
NORTHWEST AND NORTH CENTRAL SOUTH DAKOTA

CITY           SKY/WX    TMP DP  RH WIND       PRES   REMARKS
BUFFALO          N/A     37  28  70 W10       30.10S
FAITH            N/A     29  26  89 SW9       30.19S WCI  20
MOBRIDGE       CLOUDY    30  23  75 E6        30.22S WCI  24
$$

SDZ012>016-024>037-041>051-057-063-072>074-022200-
SOUTHWEST AND SOUTH CENTRAL SOUTH DAKOTA

CITY           SKY/WX    TMP DP  RH WIND       PRES   REMARKS
RAPID CTY ARPT MOSUNNY   40  23  50 N14       30.17F
PIERRE         CLOUDY    31  26  82 SW7       30.25R WCI  24
CUSTER         CLOUDY    32  12  43 W10       30.12S WCI  24
ELLSWORTH AFB  MOSUNNY   38  24  56 N16       30.16
PHILIP         PTSUNNY   34  27  75 CALM      30.23S
PINE RIDGE     SUNNY     37  28  70 E3        30.19F
SPEARFISH      FAIR      36  19  51 NW9       30.16F
WINNER         CLOUDY    35  26  69 NW3       30.25F
$$

SDZ004>011-016>023-039-040-022200-
NORTHEAST SOUTH DAKOTA

CITY           SKY/WX    TMP DP  RH WIND       PRES   REMARKS
ABERDEEN       CLOUDY    29  20  69 NW7       30.29R WCI  22
WATERTOWN      CLOUDY    26  20  77 N6        30.24R WCI  19
BROOKINGS      CLOUDY    28  21  75 NW12      30.25R WCI  18
SISSETON         N/A     28  20  71 NW8       30.27R WCI  20
$$

SDZ017-020-022-023-036>040-048>070-022200-
SOUTHEAST SOUTH DAKOTA

CITY           SKY/WX    TMP DP  RH WIND       PRES   REMARKS
SIOUX FALLS    CLOUDY    32  25  75 NW10      30.27R WCI  24
HURON          CLOUDY    31  23  72 NW3       30.28S
CHAMBERLAIN    CLOUDY    33  30  88 CALM      30.27S
MITCHELL       CLOUDY    32  26  78 NW6       30.30S WCI  26
YANKTON        CLOUDY    36  25  64 NW9       30.29R
$$

ABBREVIATIONS USED IN REMARKS
   TC - TEMPERATURE IN CELSIUS
  WCI - WIND CHILL INDEX
   HX - HEAT INDEX
  VSB - VISIBILITY





USA.gov is the U.S. government's official web portal to all federal, state and local government web resources and services.